ETV Charleston SC US WEATHERSTEM current weather conditions

sailwx.info

Wind from 198 at 1 knots gusting 5

Air temperature 28.4° C
Dewpoint 22.4° C

Last reported at 2020-Jul-05 22:50 UTC.
Time now 2020-Jul-05 23:25 UTC

Location: N 32°48' W 080°01'.
View on Google Maps.

See reports from other nearby stations

  
Tides and Currents Weather Stations Pressure Air Temp Water Temp Dewpoint Dewpoint Depression Visibility Wind Speed Wind Dir Waves Ship Positions
date/time (UTC)wind fromknots sea level pressurealtimeterstation pressurevisibilityair tempwater tempwave heightnotes
2020-Jul-05 22:50 198 1 gusting 5 28.4
2020-Jul-05 22:30 236 2 gusting 5 28.5
2020-Jul-05 22:20 207 2 gusting 6 28.8
2020-Jul-05 22:10 226 1 gusting 6 29.0
2020-Jul-05 21:50 084 1 gusting 6 28.7
2020-Jul-05 21:40 197 1 gusting 6 28.9
2020-Jul-05 21:30 204 2 gusting 5 28.8
2020-Jul-05 21:20 193 1 gusting 7 28.8
2020-Jul-05 21:10 184 5 gusting 6 29.6
2020-Jul-05 20:50 178 1 gusting 6 29.3
2020-Jul-05 20:40 147 1 gusting 2 29.7
2020-Jul-05 20:30 204 2 gusting 6 29.9
2020-Jul-05 20:20 208 1 gusting 4 29.8
2020-Jul-05 20:10 176 0 gusting 4 30.0
2020-Jul-05 19:50 30.2
2020-Jul-05 19:40 217 2 gusting 3 30.3
2020-Jul-05 19:30 180 2 gusting 5 29.9
2020-Jul-05 19:20 170 1 gusting 6 30.3
2020-Jul-05 19:10 216 0 gusting 2 30.6
2020-Jul-05 19:00 227 0 gusting 5 30.6
2020-Jul-05 18:50 215 3 gusting 3 29.9
2020-Jul-05 18:40 196 1 gusting 5 30.2
2020-Jul-05 18:30 212 1 gusting 8 30.2
2020-Jul-05 18:20 198 1 gusting 3 30.2
2020-Jul-05 18:10 220 2 gusting 3 30.1
2020-Jul-05 17:50 207 0 gusting 7 30.2
2020-Jul-05 17:40 236 0 gusting 5 30.1
2020-Jul-05 17:30 202 2 gusting 5 30.1
2020-Jul-05 17:20 217 0 gusting 4 29.9
2020-Jul-05 17:10 204 3 gusting 3 29.7
2020-Jul-05 16:50 30.3
2020-Jul-05 16:40 238 1 gusting 2 30.6
2020-Jul-05 16:30 269 1 gusting 4 30.1
2020-Jul-05 16:20 30.1
2020-Jul-05 16:10 167 2 gusting 2 30.3
2020-Jul-05 15:50 184 0 gusting 5 30.1
2020-Jul-05 15:40 184 0 gusting 3 29.5
2020-Jul-05 15:30 213 0 gusting 2 29.8
2020-Jul-05 15:20 213 2 gusting 2 30.0
2020-Jul-05 15:10 264 1 gusting 2 29.8
2020-Jul-05 14:50 218 0 gusting 2 29.0
2020-Jul-05 14:40 220 0 gusting 2 27.8
2020-Jul-05 14:30 27.1
2020-Jul-05 14:20 27.3
2020-Jul-05 14:10 28.1
2020-Jul-05 13:50 205 0 gusting 1 27.2
2020-Jul-05 13:40 27.2
2020-Jul-05 13:30 27.1
2020-Jul-05 13:20 176 0 gusting 1 27.7
2020-Jul-05 13:10 27.6
2020-Jul-05 12:50 227 0 gusting 2 27.3
2020-Jul-05 12:40 226 1 gusting 2 26.8
2020-Jul-05 12:30 226 0 gusting 0 26.5
2020-Jul-05 12:20 226 0 gusting 1 26.2
2020-Jul-05 12:10 25.5
2020-Jul-05 11:50 24.4
2020-Jul-05 11:40 24.2
2020-Jul-05 11:30 23.9
2020-Jul-05 11:20 23.7
2020-Jul-05 11:10 23.4
2020-Jul-05 10:50 23.1
2020-Jul-05 10:40 22.7
2020-Jul-05 10:30 22.8
2020-Jul-05 10:20 22.8
2020-Jul-05 10:10 22.7
2020-Jul-05 09:50 22.6
2020-Jul-05 09:40 22.8
2020-Jul-05 09:30 22.9
2020-Jul-05 09:20 23.1
2020-Jul-05 09:10 23.1
2020-Jul-05 08:50 23.0
2020-Jul-05 08:40 23.1
2020-Jul-05 08:30 23.0
2020-Jul-05 08:20 23.1
2020-Jul-05 08:10 23.2
2020-Jul-05 07:50 23.4
2020-Jul-05 07:40 23.4
2020-Jul-05 07:30 23.4
2020-Jul-05 07:20 23.4
2020-Jul-05 07:10 23.4
2020-Jul-05 06:50 23.6
2020-Jul-05 06:40 23.6
2020-Jul-05 06:30 23.8
2020-Jul-05 06:20 23.4
2020-Jul-05 06:10 23.6
2020-Jul-05 06:00 23.8
2020-Jul-05 05:50 24.0
2020-Jul-05 05:40 24.1
2020-Jul-05 05:20 24.3
2020-Jul-05 05:10 24.3
2020-Jul-05 05:00 24.4
2020-Jul-05 04:50 24.5
2020-Jul-05 04:30 24.6
2020-Jul-05 04:20 24.6
2020-Jul-05 04:10 24.8
2020-Jul-05 03:50 25.2
2020-Jul-05 03:40 25.2
2020-Jul-05 03:30 25.5
2020-Jul-05 03:20 25.5
2020-Jul-05 03:10 25.9
2020-Jul-05 03:00 26.3
2020-Jul-05 02:50 26.4
2020-Jul-05 02:40 26.4
2020-Jul-05 02:30 26.6
2020-Jul-05 02:20 26.6
2020-Jul-05 02:10 26.7
2020-Jul-05 02:00 240 0 gusting 1 26.8
2020-Jul-05 01:50 240 0 gusting 1 26.9
2020-Jul-05 01:30 26.6
2020-Jul-05 01:20 27.0
2020-Jul-05 01:00 246 0 gusting 1 27.3
2020-Jul-05 00:50 27.4
2020-Jul-05 00:40 227 0 gusting 1 27.6
2020-Jul-05 00:30 27.7
2020-Jul-05 00:20 207 0 gusting 2 27.8
2020-Jul-05 00:10 27.9
2020-Jul-05 00:00 206 0 gusting 2 28.2
2020-Jul-04 23:50 221 1 gusting 2 28.2
2020-Jul-04 23:40 208 0 gusting 2 28.3
2020-Jul-04 23:30 209 1 gusting 1 28.4
2020-Jul-04 23:20 204 1 gusting 2 28.6
2020-Jul-04 23:10 178 0 gusting 2 28.9
2020-Jul-04 23:00 211 1 gusting 2 29.1
2020-Jul-04 22:50 199 0 gusting 2 29.1
2020-Jul-04 22:40 176 1 gusting 2 29.4
2020-Jul-04 22:30 29.5
2020-Jul-04 22:20 216 1 gusting 3 29.6
2020-Jul-04 22:10 215 1 gusting 2 29.7
2020-Jul-04 22:00 202 0 gusting 4 29.9
2020-Jul-04 21:50 162 0 gusting 4 29.8
2020-Jul-04 21:40 198 0 gusting 2 30.1
2020-Jul-04 21:30 196 1 gusting 3 30.4
2020-Jul-04 21:20 192 0 gusting 3 30.7
2020-Jul-04 21:10 252 0 gusting 3 30.7
2020-Jul-04 21:00 210 2 gusting 3 31.0
2020-Jul-04 20:50 213 1 gusting 3 30.9
2020-Jul-04 20:40 208 1 gusting 3 31.2
2020-Jul-04 20:30 196 1 gusting 3 31.3
2020-Jul-04 20:20 214 1 gusting 3 31.3
2020-Jul-04 20:10 220 2 gusting 3 31.4
2020-Jul-04 20:00 215 2 gusting 3 31.3
2020-Jul-04 19:50 215 0 gusting 3 31.6
2020-Jul-04 19:40 238 0 gusting 3 31.4
2020-Jul-04 19:30 229 1 gusting 4 31.6
2020-Jul-04 19:20 197 1 gusting 4 31.8
2020-Jul-04 19:10 210 2 gusting 4 31.9
2020-Jul-04 19:00 223 1 gusting 4 31.5
2020-Jul-04 18:50 205 0 gusting 4 31.4
2020-Jul-04 18:40 191 1 gusting 3 32.2
2020-Jul-04 18:30 215 0 gusting 4 31.5
2020-Jul-04 18:20 179 2 gusting 3 31.0
2020-Jul-04 18:10 32.2
2020-Jul-04 18:00 200 2 gusting 2 31.9
2020-Jul-04 17:50 221 0 gusting 2 32.4
2020-Jul-04 17:40 32.4
2020-Jul-04 17:30 174 0 gusting 1 32.1
2020-Jul-04 17:20 32.0
2020-Jul-04 17:10 32.0
2020-Jul-04 17:00 32.0
2020-Jul-04 16:50 163 3 gusting 5 32.0
2020-Jul-04 16:40 073 0 gusting 3 31.7
2020-Jul-04 16:30 31.7
2020-Jul-04 16:20 037 1 gusting 2 31.3
2020-Jul-04 16:10 197 2 gusting 2 31.2
2020-Jul-04 16:00 31.2
2020-Jul-04 15:50 080 0 gusting 2 30.8
2020-Jul-04 15:40 30.7
2020-Jul-04 15:30 034 0 gusting 2 30.7
2020-Jul-04 15:20 044 0 gusting 2 30.3
2020-Jul-04 15:00 29.9
2020-Jul-04 14:50 005 0 gusting 0 29.6
2020-Jul-04 14:40 29.4
2020-Jul-04 14:20 005 1 gusting 2 28.9
2020-Jul-04 14:10 28.6
2020-Jul-04 14:00 28.4
2020-Jul-04 13:50 018 0 gusting 1 27.8
2020-Jul-04 13:40 013 0 gusting 1 27.7
2020-Jul-04 13:30 27.4
2020-Jul-04 13:20 27.1
2020-Jul-04 13:10 26.7
2020-Jul-04 13:00 26.5
2020-Jul-04 12:50 26.3
2020-Jul-04 12:40 26.0
2020-Jul-04 12:30 25.5
2020-Jul-04 12:20 25.1
2020-Jul-04 12:10 24.9
2020-Jul-04 12:00 24.4
2020-Jul-04 11:50 24.3
2020-Jul-04 11:40 23.9
2020-Jul-04 11:30 23.7
2020-Jul-04 11:20 23.4
2020-Jul-04 11:10 23.2
2020-Jul-04 11:00 23.1
2020-Jul-04 10:50 23.0
2020-Jul-04 10:40 23.1
2020-Jul-04 10:30 23.0
2020-Jul-04 10:20 23.2
2020-Jul-04 10:10 23.1
2020-Jul-04 10:00 23.2
2020-Jul-04 09:50 23.1
2020-Jul-04 09:40 23.2
2020-Jul-04 09:30 23.3
2020-Jul-04 09:20 23.3
2020-Jul-04 09:10 23.4
2020-Jul-04 09:00 23.4
2020-Jul-04 08:50 23.4
2020-Jul-04 08:40 23.6
2020-Jul-04 08:30 23.6
2020-Jul-04 08:20 23.7
2020-Jul-04 08:10 23.9
2020-Jul-04 08:00 23.9
2020-Jul-04 07:50 23.9
2020-Jul-04 07:40 24.0
2020-Jul-04 07:30 24.2
2020-Jul-04 07:20 24.1
2020-Jul-04 07:10 24.3
2020-Jul-04 07:00 24.2
2020-Jul-04 06:50 24.3
2020-Jul-04 06:40 24.3
2020-Jul-04 06:30 24.5
2020-Jul-04 06:20 24.6
2020-Jul-04 06:10 24.6
2020-Jul-04 06:00 24.8
2020-Jul-04 05:50 24.8
2020-Jul-04 05:40 24.8
2020-Jul-04 05:30 24.9
2020-Jul-04 05:20 25.0
2020-Jul-04 05:10 25.0
2020-Jul-04 05:00 25.1
2020-Jul-04 04:50 25.2
2020-Jul-04 04:40 25.2
2020-Jul-04 04:30 25.4
2020-Jul-04 04:20 25.3
2020-Jul-04 04:10 25.4
2020-Jul-04 04:00 25.3
2020-Jul-04 03:50 25.6
2020-Jul-04 03:40 25.6
2020-Jul-04 03:30 26.1
2020-Jul-04 03:20 25.8
2020-Jul-04 03:10 26.1
2020-Jul-04 03:00 25.8
2020-Jul-04 02:40 26.1
2020-Jul-04 02:30 26.4
2020-Jul-04 02:20 26.7
2020-Jul-04 02:10 26.9
2020-Jul-04 02:00 26.9
2020-Jul-04 01:50 27.1
2020-Jul-04 01:40 27.1
2020-Jul-04 01:30 27.2
2020-Jul-04 01:20 232 0 gusting 1 27.2
2020-Jul-04 01:10 27.3
2020-Jul-04 01:00 215 0 gusting 0 27.3
2020-Jul-04 00:40 27.7
2020-Jul-04 00:30 219 0 gusting 1 27.9
2020-Jul-04 00:20 219 0 gusting 2 27.9
2020-Jul-04 00:10 227 0 gusting 1 28.0
2020-Jul-04 00:00 205 0 gusting 2 28.2
2020-Jul-03 23:50 188 1 gusting 1 28.2
2020-Jul-03 23:40 217 0 gusting 2 28.5
2020-Jul-03 23:30 197 0 gusting 5 28.7